Houghton, MI

12:35 PM EDT on May 20, 2018 (GMT -0400)
Houghton County Memorial

Weather History for KCMX - April, 2013

Change the Weather History Date:

Friday, April 26, 2013

  Actual Average Record
Temperature  
Mean Temperature 42 °F -  
Max Temperature 54 °F 53 °F 82 °F (1990)
Min Temperature 30 °F 34 °F 21 °F (2003)
Degree Days  
Heating Degree Days 24    
Moisture  
Dew Point 30 °F    
Average Humidity 72    
Maximum Humidity 96    
Minimum Humidity 48    
Precipitation  
Precipitation 0.08 in - - ()
Sea Level Pressure  
Sea Level Pressure 30.14 in    
Wind  
Wind Speed 4 mph (SE)    
Max Wind Speed 9 mph    
Max Gust Speed -    
Visibility 10 miles    
Events Rain    
Averages and records for this station are not official NWS values.
T = Trace of Precipitation, MM = Missing Value Source: NWS Daily Summary

Daily Weather History Graph

Daily Weather History Graph

Search for Another Location

Airport or City:

Astronomy

Apr. 26, 2013 Rise Set
Actual Time 6:45 AM EDT 8:58 PM EDT
Civil Twilight 6:12 AM EDT 9:32 PM EDT
Nautical Twilight 5:31 AM EDT 10:13 PM EDT
Astronomical Twilight 4:44 AM EDT 11:00 PM EDT
Moon 10:26 PM EDT (4/26) 7:09 AM EDT (4/26)
Length of Visible Light 15h 19m
Length of Day
14h 12m
Full, 99% of the Moon is Illuminated
Apr 26
Full
May 2
Last Quarter
May 9
New
May 18
First Quarter
May 25
Full

Hourly Weather History & Observations

Time (EDT) Temp. Windchill Dew Point Humidity Pressure Visibility Wind Dir Wind Speed Gust Speed Precip Events Conditions
12:53 AM 33.1 °F 27.7 °F 19.9 °F 59% 30.19 in 10.0 mi South 5.8 mph - N/A   Clear
1:53 AM 30.9 °F - 21.0 °F 67% 30.19 in 10.0 mi Calm Calm - N/A   Clear
2:53 AM 30.9 °F - 21.0 °F 67% 30.18 in 10.0 mi Calm Calm - N/A   Clear
3:53 AM 30.9 °F - 21.9 °F 69% 30.18 in 10.0 mi Calm Calm - N/A   Clear
4:53 AM 32.0 °F 26.4 °F 23.0 °F 69% 30.17 in 10.0 mi SSW 5.8 mph - N/A   Clear
5:53 AM 30.9 °F 25.2 °F 23.0 °F 72% 30.17 in 10.0 mi South 5.8 mph - N/A   Scattered Clouds
6:53 AM 32.0 °F 26.4 °F 24.1 °F 73% 30.15 in 10.0 mi South 5.8 mph - N/A   Partly Cloudy
7:53 AM 34.0 °F 28.0 °F 25.0 °F 70% 30.14 in 10.0 mi South 6.9 mph - N/A   Overcast
8:53 AM 35.1 °F 28.6 °F 26.1 °F 70% 30.14 in 10.0 mi South 8.1 mph - N/A   Overcast
9:53 AM 34.0 °F 31.0 °F 30.0 °F 85% 30.16 in 4.0 mi South 3.5 mph - 0.04 in Rain Light Rain
10:53 AM 34.0 °F 28.8 °F 33.1 °F 96% 30.13 in 10.0 mi ESE 5.8 mph - 0.04 in   Overcast
11:53 AM 37.9 °F 31.5 °F 35.1 °F 89% 30.12 in 10.0 mi ESE 9.2 mph - N/A   Mostly Cloudy
12:53 PM 39.9 °F 34.5 °F 35.1 °F 83% 30.11 in 10.0 mi ESE 8.1 mph - N/A   Overcast
1:53 PM 42.1 °F 38.4 °F 35.1 °F 76% 30.09 in 10.0 mi East 5.8 mph - N/A   Clear
2:53 PM 45.0 °F 42.6 °F 35.1 °F 68% 30.08 in 10.0 mi ENE 4.6 mph - N/A   Clear
3:53 PM 46.0 °F - 35.1 °F 66% 30.07 in 10.0 mi Calm Calm - N/A   Clear
4:53 PM 50.0 °F - 35.1 °F 57% 30.07 in 10.0 mi Calm Calm - N/A   Clear
5:53 PM 46.9 °F - 33.1 °F 59% 30.09 in 10.0 mi NW 9.2 mph - N/A   Clear
6:53 PM 53.1 °F - 34.0 °F 48% 30.10 in 10.0 mi Calm Calm - N/A   Clear
7:53 PM 44.1 °F 42.5 °F 34.0 °F 68% 30.12 in 10.0 mi East 3.5 mph - N/A   Clear
8:53 PM 44.1 °F 42.5 °F 34.0 °F 68% 30.13 in 10.0 mi East 3.5 mph - N/A   Clear
9:53 PM 39.0 °F - 33.1 °F 79% 30.15 in 10.0 mi Calm Calm - N/A   Clear
10:53 PM 37.0 °F - 33.1 °F 86% 30.16 in 10.0 mi Calm Calm - N/A   Clear
11:53 PM 35.1 °F - 32.0 °F 89% 30.16 in 10.0 mi Calm Calm - N/A   Clear